Regional Weather Roundup
Issued by NWS

Home | Current Version | Previous Version | Text Only | Print | Product List | Glossary Off
Versions: 1 2 3 4 5 6 7 8 9 10 11 12 13 14 15 16 17 18 19 20 21 22 23 24 25 26 27 28

000
ASUS45 KPSR 241410
RWRAZ

ARIZONA HOURLY REGIONAL WEATHER ROUNDUP
NATIONAL WEATHER SERVICE PHOENIX AZ
700 AM MST MON APR 24 2017

NOTE: FAIR INDICATES FEW OR NO CLOUDS BELOW 12,000 FEET WITH NO
SIGNIFICANT WEATHER AND/OR OBSTRUCTIONS TO VISIBILITY.

AZZ001>003-036-241500-
NORTHWEST ARIZONA

CITY           SKY/WX    TMP DP  RH WIND       PRES   REMARKS
BULLHEAD CITY  PTSUNNY   68  25  19 S3        29.67S
KINGMAN        PTSUNNY   59  25  27 SE5       29.77R
$$

AZZ004>008-015-016-018-241500-
NORTH CENTRAL ARIZONA

CITY           SKY/WX    TMP DP  RH WIND       PRES   REMARKS
GRAND CANYON   PTSUNNY   48  25  40 SW13      29.90R
WILLIAMS       PTSUNNY   54  23  30 S18G25    29.90S
PRESCOTT       MOSUNNY   55  25  31 E9        29.88R
FLAGSTAFF      SUNNY     50  24  36 SW10      29.93R
PAYSON         SUNNY     55  27  33 CALM      29.94S
PAGE           CLOUDY    58  29  33 NW3       29.77R
$$

AZZ009>014-017-241500-
NORTHEAST ARIZONA

CITY           SKY/WX    TMP DP  RH WIND       PRES   REMARKS
WINSLOW        MOSUNNY   54  25  32 N3        29.87R
SAINT JOHNS    SUNNY     57  24  28 CALM      29.92S
WINDOW ROCK    MOSUNNY   52  21  29 S5        29.94R
SHOW LOW       SUNNY     54  18  24 S20G26    29.96F
$$

AZZ540-542>544-546-548-241500-
GREATER PHOENIX AREA

CITY           SKY/WX    TMP DP  RH WIND       PRES   REMARKS
PHOENIX        MOSUNNY   72  28  19 E9        29.73R
BUCKEYE        SUNNY     68  18  14 NE3       29.74R
GLENDALE       PTSUNNY   70  32  24 CALM      29.75R
LUKE AFB       MOSUNNY   68  34  28 CALM      29.73R
DEER VALLEY    SUNNY     71  25  17 E8        29.75R
SCOTTSDALE     SUNNY     70  26  19 CALM      29.77R
MESA-FALCON    SUNNY    N/A N/A N/A E10G18    29.76R
MESA-GATEWAY   MOSUNNY   66  27  22 E10       29.77R
CHANDLER       SUNNY     72  28  20 SE12      29.75R
$$

AZZ539-553-241500-
SOUTHWEST MARICOPA COUNTY AND PINAL COUNTY

CITY           SKY/WX    TMP DP  RH WIND       PRES   REMARKS
CASA GRANDE    SUNNY     69  26  20 VRB3      29.78R
GILA BEND      SUNNY     73  28  18 S6        29.72R
$$

AZZ503-504-507>509-241500-
SOUTHEAST ARIZONA

CITY           SKY/WX    TMP DP  RH WIND       PRES   REMARKS
TUCSON         SUNNY     68  21  16 SE8       29.87R
DAVIS-MONTHAN  SUNNY     69  21  16 E13       29.86R
RYAN FIELD     SUNNY     64  25  22 E7        29.85R
NOGALES        SUNNY     59  20  22 S6        29.95R
SIERRA VISTA   SUNNY     62  17  17 N7        29.99R
DOUGLAS        SUNNY     63  18  17 E5        29.97R
SAFFORD        SUNNY     66  21  18 NE3       29.86R
$$

AZZ532-241500-
SOUTHWEST ARIZONA

CITY           SKY/WX    TMP DP  RH WIND       PRES   REMARKS
YUMA           PTSUNNY   68  29  23 S6        29.71R
$$

CAZ041-043-047-048-061-525>527-560>570-241500-
SOUTHERN CALIFORNIA

CITY           SKY/WX    TMP DP  RH WIND       PRES   REMARKS
DOWNTOWN L.A.  CLEAR     61  53  75 CALM      29.89R
L.A. AIRPORT   MOCLDY    60  53  77 CALM      29.90R
SAN DIEGO      CLOUDY    61  51  70 S9        29.93R
BURBANK        PTCLDY    57  51  80 CALM      29.90R
ONTARIO        CLOUDY    58  53  84 SW7       29.90R HAZE
RIVERSIDE      CLOUDY    58  55  90 W3        29.91R
PALM SPRINGS   SUNNY     67  45  45 W10G18    29.71R
EL CENTRO NAS  MOSUNNY   75  30  19 W20       29.71R
IMPERIAL       MOSUNNY   72  38  29 W12       29.69R
BLYTHE         MOSUNNY   64  36  35 CALM      29.70R
NEEDLES        MOSUNNY   73  21  14 W7        29.69R
$$

NVZ020-UTZ003-241500-
SOUTHERN NEVADA-UTAH

CITY           SKY/WX    TMP DP  RH WIND       PRES   REMARKS
LAS VEGAS      CLOUDY    65  28  24 S6        29.68R
SALT LAKE CITY CLOUDY    52  40  63 SE9       29.69F
$$

NMZ009-TXZ055-241500-
NEW MEXICO-WEST TEXAS

CITY           SKY/WX    TMP DP  RH WIND       PRES   REMARKS
ALBUQUERQUE    SUNNY     57  30  35 S8        29.92R
EL PASO        MOSUNNY   69  26  20 S5        29.91R
$$


........................KEY........................
SKY/WX - SKY CONDITION/WEATHER
TMP    - TEMPERATURE IN FAHRENHEIT
DP     - DEW POINT IN FAHRENHEIT
RH     - RELATIVE HUMIDITY IN PERCENT
WIND   - DIRECTION AND SPEED IN MILES PER HOUR (MPH)
VRB    - VARIABLE WIND DIRECTION
PRES   - MEAN SEA LEVEL PRESSURE IN INCHES OF MERCURY
         F - FALLING PRESSURE   R - RISING PRESSURE
         S - STEADY PRESSURE
VSB    - VISIBILITY IN MILES
HX     - HEAT INDEX IN FAHRENHEIT
WCI    - WIND CHILL INDEX IN FAHRENHEIT
TC     - TEMPERATURE IN CELSIUS WHICH IS ALSO KNOWN AS
         TEMPERATURE IN CENTIGRADE
AFB    - AIR FORCE BASE
         LUKE AFB IS LUKE AIR FORCE BASE
         DAVIS-MONTHAN IS DAVIS-MONTHAN AIR FORCE BASE
NAS    - NAVAL AIR STATION
         EL CENTRO NAS IS EL CENTRO NAVAL AIR STATION
N/A    - NOT AVAILABLE





USA.gov is the U.S. government's official web portal to all federal, state and local government web resources and services.